This is the latest recevied weather packets stored in our database for station/object KC3QLX. If no packets are shown the sender has not sent any weather packets the latest 10 day(s).
| Time | Temp. | Humidity | Pressure | Rain* | Wind** | Luminosity | Snow |
|---|---|---|---|---|---|---|---|
| 1777911999 | 19.44° C | 41% | 1011.8 hPa | 0 mm | - | 690 W/m² | - |
| 1777911696 | 18.89° C | 43% | 1011.8 hPa | 0 mm | - | 724 W/m² | - |
| 1777911392 | 18.89° C | 43% | 1011.9 hPa | 0 mm | - | 731 W/m² | - |
| 1777911090 | 18.89° C | 42% | 1012.1 hPa | 0 mm | - | 731 W/m² | - |
| 1777910787 | 19.44° C | 43% | 1012.2 hPa | 0 mm | - | 753 W/m² | - |
| 1777910484 | 18.89° C | 43% | 1012.1 hPa | 0 mm | - | 757 W/m² | - |
| 1777910181 | 18.89° C | 42% | 1012.2 hPa | 0 mm | - | 757 W/m² | - |
| 1777909878 | 19.44° C | 43% | 1012.3 hPa | 0 mm | - | 762 W/m² | - |
| 1777909574 | 18.89° C | 40% | 1012 hPa | 0 mm | - | 784 W/m² | - |
| 1777909272 | 18.89° C | 42% | 1012.4 hPa | 0 mm | - | 784 W/m² | - |
| 1777908970 | 18.89° C | 43% | 1012.5 hPa | 0 mm | - | 808 W/m² | - |
| 1777908668 | 18.89° C | 42% | 1012.5 hPa | 0 mm | - | 786 W/m² | - |
| 1777908364 | 18.89° C | 39% | 1012.6 hPa | 0 mm | - | 820 W/m² | - |
| 1777908061 | 18.89° C | 38% | 1012.6 hPa | 0 mm | - | 799 W/m² | - |
| 1777907756 | 18.33° C | 42% | 1012.6 hPa | 0 mm | - | 794 W/m² | - |
| 1777907451 | 17.78° C | 39% | 1012.7 hPa | 0 mm | - | 814 W/m² | - |
| 1777907149 | 17.78° C | 39% | 1012.6 hPa | 0 mm | - | 870 W/m² | - |
| 1777906846 | 17.78° C | 40% | 1012.7 hPa | 0 mm | - | 857 W/m² | - |
| 1777906544 | 17.78° C | 42% | 1012.8 hPa | 0 mm | - | 813 W/m² | - |
| 1777906238 | 17.78° C | 41% | 1012.7 hPa | 0 mm | - | 799 W/m² | - |
| 1777905935 | 17.22° C | 42% | 1012.7 hPa | 0 mm | - | 768 W/m² | - |
| 1777905632 | 16.67° C | 42% | 1012.7 hPa | 0 mm | - | 783 W/m² | - |
| 1777905329 | 16.67° C | 46% | 1012.9 hPa | 0 mm | - | 740 W/m² | - |
| 1777905027 | 16.11° C | 45% | 1012.7 hPa | 0 mm | - | 734 W/m² | - |
| 1777904724 | 16.11° C | 48% | 1012.8 hPa | 0 mm | - | 716 W/m² | - |
* Rain latest hour (hover to see other rain measurements)
** Current wind speed in m/s (hover to see current wind gust speed)